Orbital Elements
Epoch 1998 Aug. 15.0 TT = JDT 2451040.5
T 1998 Aug. 25.90698 TT Muraoka
q 2.1821842 (2000.0) P Q
n 0.12897283 Peri. 333.89019 -0.92254464 +0.31644707
a 3.8797514 Node 226.43833 -0.27862079 -0.94218665
e 0.4375454 Incl. 17.74423 -0.26698659 -0.11020689
P 7.64
>From 20 observations 1979-1985, mean residual 1".30.
|